Find Starlink 34734

NORAD ID: 65696 Int'l Des: 2025-212 Owner: SPXS Country: US Constellation: starlink operational
LEOCIRCULAR

实时位置

正在加载3D地球...

关于 Starlink 34734

正在加载描述...

即将过境

Passes for default location (London). Set your location on the main map for personalized predictions.

高度历史

Loading altitude history...

两行轨道根数

1 65696U 25212W 26107.20137657 .00005976 00000-0 21373-3 0 9997
2 65696 53.1584 166.5148 0001381 68.2494 291.8653 15.30201513 33143
Epoch: Apr 17, 2026 • Age: 10 hours

当前状态

高度 475.9 km
速度 7.63 km/s
星下点 4.53°N, 89.54°W
发射日期 Sep 21, 2025
运行时间 0.5 years
类型 internet

技术详情

分类 Payload
质量 575.00 kg
干质量 530.00 kg
总质量 575.00 kg
长度 0.30 m
直径 4.10 m
跨度 29.00 m
形状 Box + pan
制造商 SPXS
平台类型 Starlink V2MO
阶段状态 In Orbit
所有者/国家 SPXS/US

Most Searched